Tracking 35055 objects as of 19-Aug-2026
HD Live streaming from Space Station
objects crossing your sky now

STARLINK-3647

Track STARLINK-3647 now!
10-day predictions
STARLINK-3647 is classified as:


NORAD ID: 51994
Int'l Code: 2022-025AQ
Launch date: March 9, 2022
Source: United States (US)
Launch site: AIR FORCE EASTERN TEST RANGE (AFETR)
Your satellite tracking list
Your tracking list is empty




NASA's NSSDC Master Catalog

Two Line Element Set (TLE):
1 51994U 22025AQ  26230.53463075  .00003466  00000-0  11018-3 0  9998
2 51994  53.1625   7.6780 0000722  76.4645 283.6439 15.35412791245412
Source of the keplerian elements: AFSPC